Location: Mentone
(34.5413°N, 85.5351°W)
Time: 23:14:32
(UTC-05:00)

Vanguard 2 Rocket - Visible Passes

Search period start: 30 April 2016 00:00
Search period end: 10 May 2016 00:00
Orbit: 554 x 3330 km, 32.9° (Epoch: 30 April)

Date Brightness Start Highest point End Pass type
(mag) Time Alt. Az. Time Alt. Az. Time Alt. Az.
30 Apr 7.3 04:30:35 20° SSW 04:32:10 25° SSE 04:35:28 10° E visible
01 May 8.2 03:34:43 16° SE 03:34:43 16° SE 03:36:11 10° ESE visible
02 May 6.6 04:44:38 20° SW 04:47:12 41° SSE 04:50:55 10° E visible
03 May 7.2 03:48:43 30° SSE 03:48:43 30° SSE 03:52:01 10° E visible
04 May 8.7 02:52:46 12° ESE 02:52:46 12° ESE 02:53:09 10° ESE visible
04 May 6.1 04:58:35 14° WSW 05:02:17 59° S 05:06:10 10° E visible
05 May 6.5 04:02:36 41° SSW 04:03:33 48° SSE 04:07:24 10° E visible
06 May 7.8 03:06:37 26° ESE 03:06:37 26° ESE 03:08:46 10° E visible
06 May 5.9 05:12:59 10° W 05:17:25 71° S 05:21:20 10° E visible
07 May 6.1 04:16:25 30° WSW 04:18:40 65° S 04:22:36 10° E visible
08 May 6.7 03:20:22 52° SE 03:20:22 52° SE 03:24:04 10° E visible
09 May 8.5 02:24:19 19° E 02:24:19 19° E 02:25:34 10° E visible
09 May 6.1 04:30:08 18° W 04:33:48 74° S 04:37:46 10° E visible
